Location: Dimond District
(37.8033°N, 122.2128°W)
Time: 06:08:15
(UTC+00:00)

Meteor 1-16 Rocket - Pass Details

Date: 03 August 2024
Orbit: 789 x 906 km, 81.2° (Epoch: 14 September)

Event Time Altitude Azimuth Distance (km) Brightness Sun altitude
Rises 12:44:20 0° 186° (S) 3,511 7.1 -6.2°
Reaches altitude 10° 12:46:48 10° 186° (S) 2,567 6.4 -5.8°
Maximum altitude 12:52:41 87° 97° (E) 894 4.4 -4.8°
Drops below altitude 10° 12:58:27 10° 10° (N) 2,524 7.2 -3.7°
Sets 13:00:52 0° 10° (N) 3,448 7.9 -3.3°
